This is the latest recevied weather packets stored in our database for station/object WP3OF-5. If no packets are shown the sender has not sent any weather packets the latest 10 day(s).
| Time | Temp. | Humidity | Pressure | Rain* | Wind** | Luminosity | Snow |
|---|---|---|---|---|---|---|---|
| 1777810483 | 23.33° C | 88% | 1018.4 hPa | 0 mm | - | - | - |
| 1777810179 | 22.78° C | 88% | 1018.4 hPa | 0 mm | - | - | - |
| 1777809876 | 22.78° C | 88% | 1018.2 hPa | 0 mm | - | - | - |
| 1777809574 | 22.22° C | 90% | 1018.4 hPa | 0 mm | - | - | - |
| 1777809271 | 22.22° C | 89% | 1018.4 hPa | 0 mm | - | - | - |
| 1777808969 | 22.22° C | 90% | 1018.2 hPa | 0 mm | - | - | - |
| 1777808666 | 22.22° C | 90% | 1018.1 hPa | 0 mm | - | - | - |
| 1777808362 | 21.67° C | 92% | 1018 hPa | 0 mm | - | - | - |
| 1777808061 | 21.67° C | 93% | 1018.1 hPa | 0 mm | - | - | - |
| 1777807758 | 21.11° C | 96% | 1017.9 hPa | 0 mm | - | - | - |
| 1777807457 | 21.11° C | 97% | 1017.8 hPa | 0 mm | - | - | - |
| 1777807157 | 21.11° C | 98% | 1017.9 hPa | 0 mm | - | - | - |
| 1777806855 | 20° C | 98% | 1018 hPa | 0 mm | - | - | - |
| 1777806551 | 19.44° C | 98% | 1017.7 hPa | 0 mm | - | - | - |
| 1777806247 | 19.44° C | 98% | 1017.6 hPa | 0 mm | - | - | - |
| 1777805944 | 19.44° C | 98% | 1017.7 hPa | 0 mm | - | - | - |
| 1777805641 | 18.89° C | 98% | 1017.4 hPa | 0 mm | - | - | - |
| 1777805338 | 18.89° C | 97% | 1017.5 hPa | 0 mm | - | - | - |
| 1777805036 | 18.33° C | 97% | 1017.3 hPa | 0 mm | - | - | - |
| 1777804733 | 18.33° C | 97% | 1017.4 hPa | 0 mm | - | - | - |
| 1777804431 | 18.33° C | 97% | 1017.4 hPa | 0 mm | - | - | - |
| 1777804128 | 18.89° C | 97% | 1017.3 hPa | 0 mm | - | - | - |
| 1777803824 | 18.89° C | 97% | 1017 hPa | 0 mm | - | - | - |
| 1777803520 | 18.89° C | 97% | 1017.3 hPa | 0 mm | - | - | - |
| 1777803218 | 18.89° C | 97% | 1017.2 hPa | 0 mm | - | - | - |
* Rain latest hour (hover to see other rain measurements)
** Current wind speed in m/s (hover to see current wind gust speed)